Location: Newark
(51.2625°N, 13.3939°E)
Time: 06:03:36
(UTC+00:00)

Transit 2A Rocket - Pass Details

Date: 23 November 2019
Orbit: 594 x 909 km, 66.7° (Epoch: 08 December)

Event Time Altitude Azimuth Distance (km) Brightness Sun altitude
Exits shadow 05:10:45 20° 283° (WNW) 1,431 5.8 -13.0°
Maximum altitude 05:12:38 27° 245° (WSW) 1,199 5.6 -12.7°
Drops below altitude 10° 05:16:27 10° 188° (S) 2,033 7.3 -12.1°
Sets 05:19:04 0° 176° (S) 2,985 8.4 -11.7°
